Regional Weather Roundup
Issued by NWS

Home | Current Version | Previous Version | Graphics & Text | Print | Product List | Glossary On
Versions: 1 2 3 4 5 6 7 8 9 10 11 12 13 14 15 16 17 18 19 20 21 22 23 24 25 26 27 28 29 30 31 32 33 34 35 36 37 38 39 40 41 42 43 44 45 46 47 48 49 50
000
ASUS43 KOAX 200810
RWRNE

WEATHER ROUNDUP FOR NEBRASKA
NATIONAL WEATHER SERVICE OMAHA NE
200 AM CST MON NOV 20 2017

NOTES: SATELLITE DATA IS BEING USED TO AUGMENT CLOUD COVER ABOVE
       12000 FEET.
       "FAIR" INDICATES FEW OR NO CLOUDS BELOW 12,000 FEET WITH NO
       SIGNIFICANT WEATHER AND/OR OBSTRUCTIONS TO VISIBILITY.


NEZ001>004-019>022-054>056-200900-
NEBRASKA PANHANDLE

CITY           SKY/WX    TMP DP  RH WIND       PRES   REMARKS
SCOTTSBLUFF    CLOUDY    45   9  23 W17       29.80F
ALLIANCE       CLOUDY    32  15  49 W13       29.77F WCI  22
CHADRON        CLOUDY    22  14  71 SW5       29.75F WCI  16
GORDON         FAIR      33  15  48 W10       29.72F WCI  24
KIMBALL        CLOUDY    38   9  29 W17       29.83F WCI  29
SIDNEY         CLOUDY    28  11  48 W13       29.83F WCI  17
$$

NEZ057>060-069>072-079>082-200900-
SOUTHWEST NEBRASKA

CITY           SKY/WX    TMP DP  RH WIND       PRES   REMARKS
NORTH PLATTE   CLOUDY    24  18  77 NW3       29.81F
IMPERIAL       CLOUDY    30  18  60 W9        29.84F WCI  22
LEXINGTON      CLOUDY    37  23  58 W5        29.80F WCI  33
MCCOOK         CLEAR     37  22  54 W12       29.84S WCI  29
OGALLALA       CLOUDY    28  21  75 W10       29.82S WCI  18
$$

NEZ005>010-023>029-035>040-094-200900-
NORTH CENTRAL NEBRASKA

CITY           SKY/WX    TMP DP  RH WIND       PRES   REMARKS
VALENTINE      CLEAR     33  19  56 SW12      29.70F WCI  24
AINSWORTH      CLEAR     37  19  48 W13       29.71F WCI  28
BROKEN BOW     CLOUDY    37  23  56 W10       29.77F WCI  30
O`NEILL        CLOUDY    35  27  73 S10       29.71F WCI  27
ORD            CLOUDY    36  24  62 VRB3      29.76F
THEDFORD       CLOUDY    37  19  47 W5        29.76F WCI  33
$$

NEZ041-046>049-061>064-073>077-083>087-200900-
SOUTH CENTRAL NEBRASKA

CITY           SKY/WX    TMP DP  RH WIND       PRES   REMARKS
GRAND ISLAND   CLOUDY    38  27  64 SW10      29.81F WCI  31
AURORA         CLOUDY    33  24  69 SW9       29.81F WCI  25
HASTINGS       CLOUDY    38  24  57 SW9       29.83F WCI  31
HEBRON         CLEAR     40  23  50 S13       29.86S WCI  33
HOLDREGE       CLOUDY    39  27  60 SW13      29.81F WCI  32
KEARNEY        CLOUDY    33  25  72 S8        29.81F WCI  26
YORK           CLOUDY    32  25  74 CALM      29.82F
$$

NEZ011>018-030>034-042>045-200900-
NORTHEAST NEBRASKA

CITY           SKY/WX    TMP DP  RH WIND       PRES   REMARKS
NORFOLK        CLEAR     35  25  66 S10       29.76F WCI  27
ALBION         CLOUDY    32  25  74 SE6       29.77F WCI  26
BLAIR          CLOUDY    38  26  63 S12       29.82F WCI  30
COLUMBUS       CLOUDY    36  24  62 SW3       29.81F
FREMONT        CLOUDY    38  25  58 S6        29.82F WCI  34
TEKAMAH        CLEAR     33  24  69 SE10      29.81F WCI  25
WAYNE          CLEAR     36  23  60 S8        29.76F WCI  30
$$

NEZ050>053-065>068-078-088>093-200900-
SOUTHEAST NEBRASKA

CITY           SKY/WX    TMP DP  RH WIND       PRES   REMARKS
LINCOLN        CLOUDY    36  24  62 SE6       29.86F WCI  31
OMAHA EPPLEY   CLOUDY    34  25  69 S9        29.85F WCI  27
BEATRICE       CLOUDY    40  26  57 S10       29.87F WCI  33
FALLS CITY     CLOUDY    43  26  51 S14       29.91F
NEBRASKA CITY  CLOUDY    38  28  67 S10       29.88F WCI  30
PLATTSMOUTH    CLOUDY    38  27  64 S10       29.86F WCI  31
$$

NEZ044-045-051>053-067-200900-
OMAHA AREA

CITY           SKY/WX    TMP DP  RH WIND       PRES   REMARKS
OMAHA EPPLEY   CLOUDY    34  25  69 S9        29.85F WCI  27
BLAIR          CLOUDY    38  26  63 S12       29.82F WCI  30
FREMONT        CLOUDY    38  25  58 S6        29.82F WCI  34
MILLARD        CLOUDY    39  26  60 SE5       29.85F
OFFUTT AFB     CLOUDY    32  25  75 E7        29.85F WCI  26
PLATTSMOUTH    CLOUDY    38  27  64 S10       29.86F WCI  31
WAHOO          FAIR      35  24  65 S7        29.83F WCI  29
$$




USA.gov is the U.S. government's official web portal to all federal, state and local government web resources and services.